Location: Quebec
(46.8000°N, 71.2500°W)
Time: 00:14:54
(UTC-05:00)

Envisat - Pass Details

Date: 11 October 2017
Orbit: 764 x 766 km, 98.2° (Epoch: 12 December)

Event Time Altitude Azimuth Distance (km) Brightness Sun altitude
Exits shadow 20:30:47 62° 176° (S) 859 3.0 -25.5°
Maximum altitude 20:31:39 85° 255° (WSW) 776 2.9 -25.7°
Drops below altitude 10° 20:36:46 10° 345° (NNW) 2,316 5.9 -26.5°
Sets 20:39:05 0° 346° (NNW) 3,247 6.7 -26.9°
